Regional Weather Roundup
Issued by NWS

Home | Current Version | Previous Version | Graphics & Text | Print | Product List | Glossary On
Versions: 1 2 3 4 5 6 7 8 9 10 11 12 13 14 15 16 17 18 19 20 21 22 23 24 25 26 27 28 29 30 31 32 33 34 35 36 37 38 39 40 41 42 43 44 45 46 47 48 49 50
000
ASUS43 KMKX 192321
RWRWI

WISCONSIN REGIONAL WEATHER ROUNDUP
NATIONAL WEATHER SERVICE MILWAUKEE/SULLIVAN WI
500 PM CST SUN FEB 19 2017

NOTE: "FAIR" INDICATES FEW OR NO CLOUDS BELOW 12,000 FEET WITH NO
SIGNIFICANT WEATHER AND/OR OBSTRUCTIONS TO VISIBILITY.

WIZ001-002-006>008-014>016-023>028-200000-
NORTHWEST WISCONSIN

CITY           SKY/WX    TMP DP  RH WIND       PRES   REMARKS
SUPERIOR ARPT  CLOUDY    36  32  88 NE8       29.98R WCI  29
ASHLAND        PTCLDY    38  31  76 N6        30.01R WCI  33
HAYWARD        CLEAR     55  30  38 E5        29.95S
SIREN          CLOUDY    55  32  42 SE5       29.92S
CUMBERLAND     CLOUDY    50  32  50 E6        29.93S
RICE LAKE      CLOUDY    52  32  46 CALM      29.95S
CHETEK         CLOUDY    53  33  46 SE3       29.95S
LADYSMITH      PTCLDY    49  32  51 E6        29.99S
EAU CLAIRE     PTCLDY    56  31  38 SE6       29.94F
MENOMONIE      PTCLDY    50  35  57 E3        29.93F
NEW RICHMOND   MOCLDY    52  37  56 SE3       29.91S
OSCEOLA        PTCLDY    53  38  57 SE10      29.93S
$$

WIZ003>005-009-010-017-018-200000-
NORTH CENTRAL WISCONSIN

CITY           SKY/WX    TMP DP  RH WIND       PRES   REMARKS
MANITOWISH WTR CLOUDY    50  27  40 E3        30.00R
ARBOR VITAE    CLEAR     56  28  34 SE5       30.00S
WOODRUFF       CLEAR     56  28  34 SE5       30.00S
RHINELANDER    CLOUDY    53  26  35 CALM      30.02R
EAGLE RIVER    CLEAR     50  26  39 CALM      30.01S
LAND O LAKES   CLEAR     50  26  39 CALM      30.03R
PHILLIPS       PTCLDY    51  27  40 S5        29.99R
TOMAHAWK       PTCLDY    49  27  42 CALM      30.01S
MEDFORD        CLOUDY    50  31  47 E5        29.99S
MERRILL        NOT AVBL
$$

WIZ029-030-035-036-043>047-200000-
CENTRAL WISCONSIN

CITY           SKY/WX    TMP DP  RH WIND       PRES   REMARKS
WAUSAU         CLOUDY    54  29  38 SE6       30.00R
MOSINEE        PTCLDY    54  30  40 SE6       30.02R
MARSHFIELD     PTCLDY    54  29  38 SE5       29.99R
STEVENS POINT  CLEAR     51  31  46 E6        30.02R
WAUPACA        CLEAR     53  36  51 CALM      30.03S
WAUTOMA        CLEAR     57  35  43 SE5       30.02S
WISC RAPIDS    CLEAR     56  33  42 SE6       30.01S
CAMP DOUGLAS   CLEAR     56  37  48 SE7       29.99S
$$

WIZ011>013-019>022-031-037>040-048>050-200000-
NORTHEAST WISCONSIN

CITY           SKY/WX    TMP DP  RH WIND       PRES   REMARKS
ANTIGO         PTCLDY    45  31  58 SE7       30.03S
SHAWANO        CLEAR     42  34  72 CALM      30.05R
OCONTO         CLOUDY    46  30  53 E3        30.07R
STURGEON BAY   CLOUDY    43  31  62 E8        30.09R
GREEN BAY      CLEAR     56  38  50 SE3       30.05S
MANITOWOC      CLOUDY    43  31  62 MISG      30.08R
APPLETON       PTCLDY    54  32  43 VRB6      30.03R
CLINTONVILLE   CLEAR     52  32  46 SE5       30.04R
OSHKOSH        CLEAR     49  35  58 CALM      30.04S
$$

WIZ032>034-041-042-053>061-200000-
SOUTHWEST WISCONSIN

CITY           SKY/WX    TMP DP  RH WIND       PRES   REMARKS
LA CROSSE      PTCLDY    61  37  41 SE7       29.95S
SPARTA         PTCLDY    58  36  43 SE5       29.98S
VIROQUA        PTCLDY    53  39  59 CALM      29.97S
BOSCOBEL       CLOUDY    63  37  38 SE5       29.98F
PRAIRIE DU CHI MOCLDY    60  38  42 E7        29.96F
PLATTEVILLE    PTCLDY    59  39  47 E7        30.00S
$$

WIZ056-057-062-063-064-067-068-200000-
SOUTH CENTRAL WISCONSIN

CITY           SKY/WX    TMP DP  RH WIND       PRES   REMARKS
REEDSBURG      CLEAR     58  37  46 SE3       29.99F
BARABOO/DELLS  CLEAR     55  36  49 SE8       30.00F
LONE ROCK      CLOUDY    60  40  47 SE6       30.00S
MINERAL POINT  CLOUDY    59  37  44 SE8       30.00S
MADISON        MOCLDY    57  36  45 S7        30.02S
MIDDLETON      CLEAR     59  37  44 SE5       30.02F
WATERTOWN      CLEAR     59  32  36 S3        30.04R
MONROE         CLEAR     57  37  47 SE7       30.01F
JANESVILLE     CLEAR     63  36  36 SE7       30.03R
$$

WIZ051-052-058>065-066-070>072-200000-
SOUTHEAST WISCONSIN

CITY           SKY/WX    TMP DP  RH WIND       PRES   REMARKS
MILWAUKEE      MOCLDY    47  31  53 SE7       30.07R
WAUKESHA       CLEAR     54  34  47 SE9       30.06R
MILWAUKEE/TIMM CLEAR     52  27  37 E6        30.07R
RACINE         PTCLDY    47  31  53 SE7       30.08S
KENOSHA        CLOUDY    49  32  52 E7        30.06S
FOND DU LAC    CLEAR     58  37  45 S6        30.04R
SHEBOYGAN      CLEAR     46  31  55 E7        30.07R
WEST BEND      CLOUDY    50  32  50 SE7       30.06R
JUNEAU         CLEAR     57  39  52 CALM      30.05R
$$

LSZ147-162-200000-
LAKE SUPERIOR

STATION/POSITION TIME  TEMP    WIND        PRES    WAVE
                       AIR SEA DIR/SP/G            HT/PER
                 (UTC) (F)     (DEG/KT/KT) (MB)    (FT/S)
DEVILS ISLAND    2300   36      80/ 14/ 15 1017.2R
PORT WING        2230   36      30/ 15/ 17 1015.2S
SAXON HARBOR     2240   36     320/  3/  4 1015.9F
$$

LMZ867-665-643>646-200000-
LAKE MICHIGAN

STATION/POSITION TIME  TEMP    WIND        PRES    WAVE
                       AIR SEA DIR/SP/G            HT/PER
                 (UTC) (F)     (DEG/KT/KT) (MB)    (FT/S)
CHAMBERS ISLAND  2240   44     100/  4/  8 1018.3R
NORTHPORT PIER   2240   39     140/  7/  8 1018.6S
SISTER BAY       2235   47     140/  9/ 12   N/A
KEWAUNEE LAKESHO 2254   41      90/  1/  4 1018.3R
SHEBOYGAN LAKESH 2300   40     120/  1/  2 1018.7R
PORT WASHINGTON  2240   44      CALM  /  2 1019.3R
MILWAUKEE LAKESH 2300   42     150/  2/  2   N/A
KENOSHA   LAKESH 2300   46        CALM     1017.9
$$

TC  - TEMPERATURE IN CELSIUS
VSB - VISIBILITY IN STATUTE MILES
WCI - WIND CHILL INDEX
HX  - HEAT INDEX





USA.gov is the U.S. government's official web portal to all federal, state and local government web resources and services.